| time (UTC) | temp F | wind direction | speed MPH | gust MPH | rain 1hr in | rain 24hr in | rain mn in | humidity % | barometer mb |
| 20260506091003 | 62 | 165 | 0.0 | 1.0 | 0.00 | 0.00 | 0.00 | 64 | 1007.9 |
| 20260506090503 | 62 | 165 | 0.0 | 1.0 | 0.00 | 0.00 | 0.00 | 65 | 1007.9 |
| 20260506090004 | 62 | 166 | 0.0 | 3.0 | 0.00 | 0.00 | 0.00 | 64 | 1008.0 |
| 20260506085503 | 62 | 168 | 0.0 | 3.0 | 0.00 | 0.00 | 0.00 | 63 | 1008.1 |
| 20260506085003 | 62 | 169 | 0.0 | 3.0 | 0.00 | 0.00 | 0.00 | 65 | 1008.1 |
| 20260506084503 | 62 | 169 | 0.0 | 3.0 | 0.00 | 0.00 | 0.00 | 63 | 1008.3 |
| 20260506084003 | 62 | 169 | 1.0 | 3.0 | 0.00 | 0.00 | 0.00 | 66 | 1008.1 |
| 20260506083503 | 62 | 169 | 0.0 | 3.0 | 0.00 | 0.00 | 0.00 | 65 | 1008.2 |
| 20260506083004 | 62 | 169 | 0.0 | 1.0 | 0.00 | 0.00 | 0.00 | 62 | 1008.5 |
| 20260506082503 | 62 | 169 | 0.0 | 1.0 | 0.00 | 0.00 | 0.00 | 62 | 1008.3 |
| 20260506082024 | 62 | 169 | 0.0 | 1.0 | 0.00 | 0.00 | 0.00 | 62 | 1008.3 |
| 20260506081503 | 62 | 169 | 1.0 | 3.0 | 0.00 | 0.00 | 0.00 | 62 | 1008.2 |
| 20260506081003 | 62 | 169 | 1.0 | 3.0 | 0.00 | 0.00 | 0.00 | 62 | 1008.1 |
| 20260506080525 | 62 | 169 | 0.0 | 3.0 | 0.00 | 0.00 | 0.00 | 61 | 1008.1 |
| 20260506073503 | 62 | 0 | 0.0 | 0.0 | 0.00 | 0.00 | 0.00 | 64 | 1008.0 |
| 20260506073003 | 62 | 169 | 0.0 | 1.0 | 0.00 | 0.00 | 0.00 | 63 | 1008.1 |
| 20260506072524 | 62 | 169 | 0.0 | 1.0 | 0.00 | 0.00 | 0.00 | 62 | 1008.1 |
| 20260506072003 | 62 | 169 | 0.0 | 1.0 | 0.00 | 0.00 | 0.00 | 63 | 1008.3 |
| 20260506071503 | 62 | 169 | 0.0 | 3.0 | 0.00 | 0.00 | 0.00 | 63 | 1008.3 |
| 20260506071024 | 62 | 169 | 0.0 | 3.0 | 0.00 | 0.00 | 0.00 | 64 | 1008.4 |
| 20260506070504 | 62 | 169 | 0.0 | 3.0 | 0.00 | 0.00 | 0.00 | 63 | 1008.5 |
| 20260506062503 | 61 | 0 | 0.0 | 0.0 | 0.00 | 0.00 | 0.00 | 66 | 1008.7 |
| 20260506062003 | 61 | 0 | 0.0 | 0.0 | 0.00 | 0.00 | 0.00 | 66 | 1008.7 |
| 20260506061524 | 60 | 0 | 0.0 | 0.0 | 0.00 | 0.00 | 0.00 | 66 | 1008.7 |
| 20260506061024 | 61 | 0 | 0.0 | 0.0 | 0.00 | 0.00 | 0.00 | 67 | 1008.8 |
| 20260506060503 | 61 | 0 | 0.0 | 0.0 | 0.00 | 0.00 | 0.00 | 69 | 1008.7 |
| 20260506051026 | 62 | 0 | 0.0 | 0.0 | 0.00 | 0.00 | 0.00 | 68 | 1009.4 |
| 20260506050505 | 62 | 0 | 0.0 | 0.0 | 0.00 | 0.00 | 0.00 | 68 | 1009.4 |
| 20260506045005 | 62 | 0 | 0.0 | 0.0 | 0.00 | 0.00 | 0.00 | 68 | 1009.3 |
| 20260506044505 | 62 | 0 | 0.0 | 0.0 | 0.00 | 0.00 | 0.00 | 69 | 1009.2 |
| 20260506044005 | 62 | 0 | 0.0 | 0.0 | 0.00 | 0.00 | 0.00 | 69 | 1009.2 |
| 20260506043505 | 62 | 0 | 0.0 | 0.0 | 0.00 | 0.00 | 0.00 | 70 | 1009.2 |
| 20260506043005 | 62 | 0 | 0.0 | 0.0 | 0.00 | 0.00 | 0.00 | 70 | 1009.3 |
| 20260506042505 | 62 | 0 | 0.0 | 0.0 | 0.00 | 0.00 | 0.00 | 70 | 1009.3 |
| 20260506042026 | 62 | 0 | 0.0 | 0.0 | 0.00 | 0.00 | 0.00 | 70 | 1009.5 |
| 20260506041505 | 62 | 0 | 0.0 | 0.0 | 0.00 | 0.00 | 0.00 | 69 | 1009.5 |
| 20260506041005 | 62 | 0 | 0.0 | 0.0 | 0.00 | 0.00 | 0.00 | 69 | 1009.5 |
| 20260506040505 | 62 | 0 | 0.0 | 0.0 | 0.00 | 0.00 | 0.00 | 69 | 1009.5 |
| 20260506040005 | 62 | 0 | 0.0 | 0.0 | 0.00 | 0.00 | 0.00 | 69 | 1009.6 |
| 20260506035505 | 63 | 0 | 0.0 | 0.0 | 0.00 | 0.00 | 0.00 | 68 | 1009.6 |
| 20260506035026 | 63 | 0 | 0.0 | 0.0 | 0.00 | 0.00 | 0.00 | 68 | 1009.7 |
| 20260506034505 | 63 | 0 | 0.0 | 0.0 | 0.00 | 0.00 | 0.00 | 68 | 1009.5 |
| 20260506034005 | 63 | 0 | 0.0 | 0.0 | 0.00 | 0.00 | 0.00 | 67 | 1009.7 |
| 20260506033505 | 63 | 173 | 0.0 | 3.0 | 0.00 | 0.00 | 0.00 | 68 | 1009.6 |
| 20260506033005 | 63 | 175 | 0.0 | 3.0 | 0.00 | 0.00 | 0.00 | 67 | 1009.7 |
| 20260506032505 | 63 | 179 | 0.0 | 3.0 | 0.00 | 0.00 | 0.00 | 67 | 1009.6 |
| 20260506032005 | 63 | 0 | 0.0 | 0.0 | 0.00 | 0.00 | 0.00 | 67 | 1009.6 |
| 20260506031505 | 63 | 0 | 0.0 | 0.0 | 0.00 | 0.00 | 0.00 | 67 | 1009.7 |
| 20260506031005 | 63 | 0 | 0.0 | 0.0 | 0.00 | 0.00 | 0.00 | 67 | 1009.7 |
| 20260506030505 | 63 | 0 | 0.0 | 0.0 | 0.00 | 0.00 | 0.00 | 66 | 1009.5 |
| 20260506030005 | 63 | 0 | 0.0 | 0.0 | 0.00 | 0.00 | 0.00 | 66 | 1009.5 |
| 20260506025505 | 64 | 0 | 0.0 | 0.0 | 0.00 | 0.00 | 0.00 | 66 | 1009.5 |
| 20260506025005 | 64 | 0 | 0.0 | 0.0 | 0.00 | 0.00 | 0.00 | 66 | 1009.5 |
| 20260506024505 | 64 | 0 | 0.0 | 0.0 | 0.00 | 0.00 | 0.00 | 65 | 1009.5 |
| 20260506024005 | 64 | 0 | 0.0 | 0.0 | 0.00 | 0.00 | 0.00 | 65 | 1009.5 |
| 20260506023505 | 64 | 0 | 0.0 | 0.0 | 0.00 | 0.00 | 0.00 | 66 | 1009.4 |
| 20260506023026 | 64 | 0 | 0.0 | 0.0 | 0.00 | 0.00 | 0.00 | 65 | 1009.4 |
| 20260506022505 | 65 | 0 | 0.0 | 0.0 | 0.00 | 0.00 | 0.00 | 65 | 1009.3 |
| 20260506022005 | 65 | 0 | 0.0 | 0.0 | 0.00 | 0.00 | 0.00 | 65 | 1009.4 |
| 20260506021526 | 65 | 0 | 0.0 | 0.0 | 0.00 | 0.00 | 0.00 | 64 | 1009.3 |
| 20260506021005 | 65 | 0 | 0.0 | 0.0 | 0.00 | 0.00 | 0.00 | 65 | 1009.4 |
| 20260506020505 | 66 | 0 | 0.0 | 0.0 | 0.00 | 0.00 | 0.00 | 64 | 1009.4 |
| 20260506020005 | 66 | 0 | 0.0 | 0.0 | 0.00 | 0.00 | 0.00 | 63 | 1009.4 |
| 20260506015505 | 66 | 0 | 0.0 | 0.0 | 0.00 | 0.00 | 0.00 | 63 | 1009.4 |
| 20260506015005 | 66 | 0 | 0.0 | 0.0 | 0.00 | 0.00 | 0.00 | 62 | 1009.4 |
| 20260506014505 | 66 | 0 | 0.0 | 0.0 | 0.00 | 0.00 | 0.00 | 62 | 1009.4 |
| 20260506014026 | 67 | 0 | 0.0 | 0.0 | 0.00 | 0.00 | 0.00 | 61 | 1009.4 |
| 20260506013504 | 67 | 0 | 0.0 | 0.0 | 0.00 | 0.00 | 0.00 | 61 | 1009.3 |
| 20260506013027 | 67 | 0 | 0.0 | 0.0 | 0.00 | 0.00 | 0.00 | 60 | 1009.3 |
| 20260506012505 | 67 | 0 | 0.0 | 0.0 | 0.00 | 0.00 | 0.00 | 59 | 1009.2 |
| 20260506012004 | 67 | 0 | 0.0 | 0.0 | 0.00 | 0.00 | 0.00 | 58 | 1009.1 |
| 20260506011505 | 68 | 0 | 0.0 | 0.0 | 0.00 | 0.00 | 0.00 | 58 | 1009.0 |
| 20260506011005 | 68 | 0 | 0.0 | 0.0 | 0.00 | 0.00 | 0.00 | 58 | 1008.9 |
| 20260506010505 | 68 | 0 | 0.0 | 0.0 | 0.00 | 0.00 | 0.00 | 57 | 1008.8 |
| 20260506010004 | 68 | 0 | 0.0 | 0.0 | 0.00 | 0.00 | 0.00 | 57 | 1008.8 |
| 20260506005504 | 68 | 0 | 0.0 | 0.0 | 0.00 | 0.00 | 0.00 | 56 | 1008.7 |
| 20260506005005 | 69 | 0 | 0.0 | 0.0 | 0.00 | 0.00 | 0.00 | 56 | 1008.7 |
| 20260506004505 | 69 | 0 | 0.0 | 0.0 | 0.00 | 0.00 | 0.00 | 55 | 1008.6 |
| 20260506004005 | 69 | 0 | 0.0 | 0.0 | 0.00 | 0.00 | 0.00 | 56 | 1008.6 |
| 20260506003505 | 70 | 0 | 0.0 | 0.0 | 0.00 | 0.00 | 0.00 | 55 | 1008.5 |
| 20260506003005 | 70 | 0 | 0.0 | 0.0 | 0.00 | 0.00 | 0.00 | 54 | 1008.5 |
| 20260506002504 | 70 | 0 | 0.0 | 0.0 | 0.00 | 0.00 | 0.00 | 53 | 1008.6 |
| 20260506002005 | 70 | 0 | 0.0 | 0.0 | 0.00 | 0.00 | 0.00 | 53 | 1008.6 |
| 20260506001504 | 70 | 0 | 0.0 | 0.0 | 0.00 | 0.00 | 0.00 | 54 | 1008.6 |
| 20260506001005 | 70 | 0 | 0.0 | 0.0 | 0.00 | 0.00 | 0.00 | 54 | 1008.5 |
| 20260506000505 | 70 | 0 | 0.0 | 0.0 | 0.00 | 0.00 | 0.00 | 53 | 1008.5 |
| 20260506000005 | 71 | 0 | 0.0 | 0.0 | 0.00 | 0.00 | 0.00 | 52 | 1008.4 |
| 20260505235505 | 71 | 0 | 0.0 | 0.0 | 0.00 | 0.00 | 0.00 | 53 | 1008.4 |
| 20260505235005 | 71 | 0 | 0.0 | 0.0 | 0.00 | 0.00 | 0.00 | 54 | 1008.4 |
| 20260505234504 | 71 | 0 | 0.0 | 0.0 | 0.00 | 0.00 | 0.00 | 52 | 1008.3 |
| 20260505234005 | 71 | 0 | 0.0 | 0.0 | 0.00 | 0.00 | 0.00 | 50 | 1008.2 |
| 20260505233504 | 71 | 0 | 0.0 | 0.0 | 0.00 | 0.00 | 0.00 | 50 | 1008.2 |
| 20260505233004 | 72 | 0 | 0.0 | 0.0 | 0.00 | 0.00 | 0.00 | 53 | 1008.3 |
| 20260505232504 | 72 | 0 | 0.0 | 0.0 | 0.00 | 0.00 | 0.00 | 51 | 1008.2 |
| 20260505232004 | 72 | 214 | 0.0 | 1.0 | 0.00 | 0.00 | 0.00 | 53 | 1008.1 |
| 20260505231504 | 72 | 214 | 0.0 | 3.0 | 0.00 | 0.00 | 0.00 | 52 | 1008.2 |
| 20260505231004 | 72 | 214 | 0.0 | 3.0 | 0.00 | 0.00 | 0.00 | 51 | 1008.1 |
| 20260505230504 | 72 | 214 | 0.0 | 1.0 | 0.00 | 0.00 | 0.00 | 53 | 1008.1 |
| 20260505230005 | 72 | 214 | 0.0 | 3.0 | 0.00 | 0.00 | 0.00 | 52 | 1008.1 |
| 20260505225504 | 72 | 214 | 0.0 | 3.0 | 0.00 | 0.00 | 0.00 | 51 | 1008.1 |
| 20260505225026 | 72 | 216 | 0.0 | 3.0 | 0.00 | 0.00 | 0.00 | 50 | 1008.1 |
| 20260505224505 | 73 | 216 | 0.0 | 3.0 | 0.00 | 0.00 | 0.00 | 50 | 1008.0 |
| 20260505224005 | 73 | 212 | 0.0 | 3.0 | 0.00 | 0.00 | 0.00 | 51 | 1008.1 |
| 20260505223505 | 73 | 209 | 0.0 | 3.0 | 0.00 | 0.00 | 0.00 | 50 | 1007.9 |
| 20260505223005 | 73 | 205 | 0.0 | 3.0 | 0.00 | 0.00 | 0.00 | 51 | 1007.9 |
| 20260505222526 | 73 | 201 | 0.0 | 1.0 | 0.00 | 0.00 | 0.00 | 51 | 1007.8 |
| 20260505222004 | 73 | 199 | 0.0 | 1.0 | 0.00 | 0.00 | 0.00 | 50 | 1007.6 |
| 20260505221504 | 74 | 194 | 1.0 | 4.0 | 0.00 | 0.00 | 0.00 | 50 | 1007.7 |
| 20260505221025 | 74 | 196 | 1.0 | 4.0 | 0.00 | 0.00 | 0.00 | 49 | 1007.7 |
| 20260505220504 | 74 | 203 | 1.0 | 9.0 | 0.00 | 0.00 | 0.00 | 50 | 1007.7 |
| 20260505220004 | 74 | 202 | 3.0 | 9.0 | 0.00 | 0.00 | 0.00 | 51 | 1007.8 |
| 20260505215505 | 74 | 210 | 3.0 | 13.0 | 0.00 | 0.00 | 0.00 | 48 | 1007.7 |
| 20260505215004 | 74 | 207 | 4.0 | 16.0 | 0.00 | 0.00 | 0.00 | 49 | 1007.6 |
| 20260505214504 | 74 | 199 | 4.0 | 16.0 | 0.00 | 0.00 | 0.00 | 49 | 1007.5 |
| 20260505214026 | 74 | 199 | 3.0 | 9.0 | 0.00 | 0.00 | 0.00 | 51 | 1007.6 |
| 20260505213504 | 74 | 209 | 3.0 | 7.0 | 0.00 | 0.00 | 0.00 | 50 | 1007.7 |
| 20260505213004 | 74 | 215 | 3.0 | 7.0 | 0.00 | 0.00 | 0.00 | 49 | 1007.6 |
| 20260505212504 | 75 | 219 | 3.0 | 9.0 | 0.00 | 0.00 | 0.00 | 49 | 1007.6 |
| 20260505212004 | 76 | 232 | 3.0 | 10.0 | 0.00 | 0.00 | 0.00 | 46 | 1007.6 |
| 20260505211504 | 76 | 230 | 3.0 | 10.0 | 0.00 | 0.00 | 0.00 | 46 | 1007.4 |
| 20260505211004 | 76 | 222 | 4.0 | 10.0 | 0.00 | 0.00 | 0.00 | 46 | 1007.4 |
| 20260505210504 | 76 | 210 | 3.0 | 10.0 | 0.00 | 0.00 | 0.00 | 46 | 1007.5 |
| 20260505210004 | 77 | 208 | 4.0 | 10.0 | 0.00 | 0.00 | 0.00 | 47 | 1007.5 |
| 20260505205504 | 76 | 198 | 6.0 | 14.0 | 0.00 | 0.00 | 0.00 | 46 | 1007.5 |
| 20260505205004 | 77 | 197 | 7.0 | 14.0 | 0.00 | 0.00 | 0.00 | 43 | 1007.4 |
| 20260505204504 | 77 | 212 | 7.0 | 23.0 | 0.00 | 0.00 | 0.00 | 45 | 1007.5 |
| 20260505204005 | 77 | 216 | 6.0 | 23.0 | 0.00 | 0.00 | 0.00 | 42 | 1007.2 |
| 20260505203504 | 76 | 214 | 6.0 | 14.0 | 0.00 | 0.00 | 0.00 | 41 | 1007.2 |
| 20260505203004 | 76 | 215 | 6.0 | 17.0 | 0.00 | 0.00 | 0.00 | 45 | 1007.1 |
| 20260505202504 | 76 | 208 | 7.0 | 17.0 | 0.00 | 0.00 | 0.00 | 43 | 1007.1 |
| 20260505202004 | 76 | 212 | 7.0 | 16.0 | 0.00 | 0.00 | 0.00 | 43 | 1007.2 |
| 20260505201504 | 76 | 223 | 7.0 | 19.0 | 0.00 | 0.00 | 0.00 | 41 | 1007.2 |
| 20260505201004 | 76 | 229 | 6.0 | 19.0 | 0.00 | 0.00 | 0.00 | 43 | 1007.2 |
| 20260505200504 | 76 | 219 | 6.0 | 16.0 | 0.00 | 0.00 | 0.00 | 45 | 1007.2 |
| 20260505200004 | 76 | 207 | 9.0 | 23.0 | 0.00 | 0.00 | 0.00 | 43 | 1007.2 |
| 20260505195504 | 76 | 200 | 9.0 | 23.0 | 0.00 | 0.00 | 0.00 | 43 | 1007.1 |
| 20260505195004 | 77 | 190 | 9.0 | 20.0 | 0.00 | 0.00 | 0.00 | 42 | 1007.1 |
| 20260505194504 | 78 | 183 | 9.0 | 20.0 | 0.00 | 0.00 | 0.00 | 41 | 1006.9 |
| 20260505194025 | 79 | 187 | 9.0 | 20.0 | 0.00 | 0.00 | 0.00 | 41 | 1006.8 |
| 20260505193504 | 80 | 206 | 7.0 | 16.0 | 0.00 | 0.00 | 0.00 | 39 | 1007.0 |
| 20260505193004 | 79 | 204 | 7.0 | 22.0 | 0.00 | 0.00 | 0.00 | 46 | 1007.1 |
| 20260505192525 | 79 | 194 | 7.0 | 22.0 | 0.00 | 0.00 | 0.00 | 42 | 1007.1 |
| 20260505192004 | 80 | 198 | 7.0 | 17.0 | 0.00 | 0.00 | 0.00 | 41 | 1007.1 |
| 20260505191525 | 79 | 196 | 9.0 | 17.0 | 0.00 | 0.00 | 0.00 | 43 | 1007.2 |
| 20260505191004 | 80 | 195 | 9.0 | 17.0 | 0.00 | 0.00 | 0.00 | 40 | 1007.2 |
| 20260505190504 | 81 | 197 | 6.0 | 16.0 | 0.00 | 0.00 | 0.00 | 42 | 1007.2 |
| 20260505190004 | 80 | 192 | 6.0 | 13.0 | 0.00 | 0.00 | 0.00 | 42 | 1007.4 |
| 20260505185504 | 80 | 202 | 7.0 | 14.0 | 0.00 | 0.00 | 0.00 | 40 | 1007.4 |
| 20260505185004 | 80 | 207 | 7.0 | 20.0 | 0.00 | 0.00 | 0.00 | 43 | 1007.6 |
| 20260505184504 | 80 | 201 | 7.0 | 20.0 | 0.00 | 0.00 | 0.00 | 41 | 1007.7 |
| 20260505184004 | 80 | 209 | 6.0 | 17.0 | 0.00 | 0.00 | 0.00 | 39 | 1007.8 |
| 20260505183525 | 80 | 222 | 6.0 | 17.0 | 0.00 | 0.00 | 0.00 | 42 | 1007.7 |
| 20260505183025 | 80 | 219 | 7.0 | 20.0 | 0.00 | 0.00 | 0.00 | 42 | 1007.8 |
| 20260505182525 | 80 | 197 | 9.0 | 23.0 | 0.00 | 0.00 | 0.00 | 43 | 1008.1 |
| 20260505182004 | 80 | 187 | 9.0 | 26.0 | 0.00 | 0.00 | 0.00 | 39 | 1008.2 |
| 20260505181525 | 80 | 192 | 7.0 | 26.0 | 0.00 | 0.00 | 0.00 | 40 | 1008.1 |
| 20260505181004 | 80 | 199 | 7.0 | 17.0 | 0.00 | 0.00 | 0.00 | 45 | 1008.2 |
| 20260505180504 | 80 | 193 | 9.0 | 17.0 | 0.00 | 0.00 | 0.00 | 42 | 1008.5 |
| 20260505180004 | 79 | 192 | 7.0 | 17.0 | 0.00 | 0.00 | 0.00 | 42 | 1008.4 |
| 20260505175504 | 79 | 206 | 6.0 | 16.0 | 0.00 | 0.00 | 0.00 | 41 | 1008.5 |
| 20260505175004 | 79 | 205 | 6.0 | 16.0 | 0.00 | 0.00 | 0.00 | 44 | 1008.5 |
| 20260505174525 | 79 | 189 | 6.0 | 17.0 | 0.00 | 0.00 | 0.00 | 43 | 1008.6 |
| 20260505174004 | 78 | 201 | 6.0 | 17.0 | 0.00 | 0.00 | 0.00 | 46 | 1008.5 |
| 20260505173504 | 78 | 206 | 7.0 | 17.0 | 0.00 | 0.00 | 0.00 | 45 | 1008.7 |
| 20260505173005 | 77 | 196 | 6.0 | 17.0 | 0.00 | 0.00 | 0.00 | 46 | 1008.5 |
| 20260505172505 | 78 | 203 | 6.0 | 20.0 | 0.00 | 0.00 | 0.00 | 46 | 1008.4 |
| 20260505172004 | 79 | 198 | 6.0 | 20.0 | 0.00 | 0.00 | 0.00 | 45 | 1008.4 |
| 20260505171504 | 78 | 209 | 6.0 | 16.0 | 0.00 | 0.00 | 0.00 | 44 | 1008.3 |
| 20260505171004 | 78 | 223 | 6.0 | 16.0 | 0.00 | 0.00 | 0.00 | 47 | 1008.5 |
| 20260505170504 | 78 | 200 | 6.0 | 22.0 | 0.00 | 0.00 | 0.00 | 44 | 1008.6 |
| 20260505170025 | 78 | 183 | 7.0 | 22.0 | 0.00 | 0.00 | 0.00 | 47 | 1008.6 |
| 20260505165504 | 78 | 186 | 7.0 | 22.0 | 0.00 | 0.00 | 0.00 | 47 | 1008.7 |
| 20260505165025 | 78 | 201 | 7.0 | 20.0 | 0.00 | 0.00 | 0.00 | 44 | 1008.7 |
| 20260505164504 | 78 | 194 | 7.0 | 20.0 | 0.00 | 0.00 | 0.00 | 47 | 1008.9 |
| 20260505164004 | 78 | 195 | 6.0 | 17.0 | 0.00 | 0.00 | 0.00 | 47 | 1008.7 |
| 20260505163504 | 78 | 234 | 4.0 | 17.0 | 0.00 | 0.00 | 0.00 | 48 | 1008.9 |
| 20260505163025 | 78 | 217 | 4.0 | 14.0 | 0.00 | 0.00 | 0.00 | 45 | 1009.0 |
| 20260505162504 | 78 | 202 | 6.0 | 14.0 | 0.00 | 0.00 | 0.00 | 48 | 1009.1 |
| 20260505162004 | 78 | 205 | 4.0 | 14.0 | 0.00 | 0.00 | 0.00 | 48 | 1009.0 |
| 20260505161504 | 77 | 211 | 4.0 | 14.0 | 0.00 | 0.00 | 0.00 | 50 | 1009.1 |
| 20260505161025 | 77 | 227 | 4.0 | 14.0 | 0.00 | 0.00 | 0.00 | 48 | 1009.1 |
| 20260505160504 | 77 | 224 | 6.0 | 14.0 | 0.00 | 0.00 | 0.00 | 50 | 1009.1 |
| 20260505153004 | 76 | 186 | 7.0 | 14.0 | 0.00 | 0.00 | 0.00 | 53 | 1009.4 |
| 20260505152505 | 75 | 183 | 6.0 | 14.0 | 0.00 | 0.00 | 0.00 | 51 | 1009.4 |
| 20260505152004 | 75 | 192 | 6.0 | 13.0 | 0.00 | 0.00 | 0.00 | 50 | 1009.5 |
| 20260505151525 | 75 | 196 | 4.0 | 13.0 | 0.00 | 0.00 | 0.00 | 52 | 1009.6 |
| 20260505151004 | 75 | 191 | 6.0 | 22.0 | 0.00 | 0.00 | 0.00 | 54 | 1009.5 |
| 20260505150504 | 74 | 192 | 4.0 | 22.0 | 0.00 | 0.00 | 0.00 | 52 | 1009.5 |
| 20260505140504 | 68 | 189 | 3.0 | 7.0 | 0.00 | 0.00 | 0.00 | 63 | 1010.0 |
| 20260505125025 | 64 | 197 | 4.0 | 12.0 | 0.00 | 0.00 | 0.00 | 67 | 1010.6 |
| 20260505124503 | 64 | 200 | 4.0 | 12.0 | 0.00 | 0.00 | 0.00 | 70 | 1010.4 |
| 20260505124004 | 64 | 187 | 4.0 | 12.0 | 0.00 | 0.00 | 0.00 | 68 | 1010.4 |
| 20260505123504 | 63 | 192 | 4.0 | 9.0 | 0.00 | 0.00 | 0.00 | 68 | 1010.6 |
| 20260505123004 | 62 | 206 | 4.0 | 9.0 | 0.00 | 0.00 | 0.00 | 71 | 1010.4 |
| 20260505122503 | 62 | 207 | 4.0 | 10.0 | 0.00 | 0.00 | 0.00 | 73 | 1010.3 |
| 20260505122004 | 61 | 201 | 4.0 | 10.0 | 0.00 | 0.00 | 0.00 | 75 | 1010.4 |
| 20260505121525 | 61 | 194 | 4.0 | 10.0 | 0.00 | 0.00 | 0.00 | 74 | 1010.4 |
| 20260505121024 | 61 | 185 | 3.0 | 10.0 | 0.00 | 0.00 | 0.00 | 76 | 1010.4 |
| 20260505120503 | 60 | 172 | 3.0 | 6.0 | 0.00 | 0.00 | 0.00 | 73 | 1010.2 |
| 20260505120004 | 60 | 172 | 1.0 | 6.0 | 0.00 | 0.00 | 0.00 | 73 | 1010.3 |
| 20260505115503 | 60 | 170 | 1.0 | 13.0 | 0.00 | 0.00 | 0.00 | 73 | 1010.3 |
| 20260505115004 | 60 | 170 | 1.0 | 13.0 | 0.00 | 0.00 | 0.00 | 73 | 1010.2 |
| 20260505114504 | 59 | 164 | 1.0 | 9.0 | 0.00 | 0.00 | 0.00 | 75 | 1010.2 |
| 20260505114004 | 59 | 168 | 1.0 | 9.0 | 0.00 | 0.00 | 0.00 | 74 | 1010.3 |
| 20260505113524 | 58 | 170 | 1.0 | 4.0 | 0.00 | 0.00 | 0.00 | 74 | 1010.4 |
| 20260505113025 | 58 | 161 | 1.0 | 4.0 | 0.00 | 0.00 | 0.00 | 74 | 1010.3 |
| 20260505112504 | 58 | 167 | 1.0 | 9.0 | 0.00 | 0.00 | 0.00 | 74 | 1010.4 |
| 20260505112003 | 58 | 170 | 1.0 | 9.0 | 0.00 | 0.00 | 0.00 | 75 | 1010.3 |
| 20260505111503 | 58 | 174 | 1.0 | 4.0 | 0.00 | 0.00 | 0.00 | 76 | 1010.1 |
| 20260505111024 | 57 | 169 | 1.0 | 6.0 | 0.00 | 0.00 | 0.00 | 75 | 1010.2 |
| 20260505110504 | 57 | 167 | 3.0 | 6.0 | 0.00 | 0.00 | 0.00 | 77 | 1010.1 |
| 20260505102004 | 56 | 167 | 0.0 | 4.0 | 0.00 | 0.00 | 0.00 | 77 | 1009.7 |
| 20260505101503 | 56 | 167 | 1.0 | 4.0 | 0.00 | 0.00 | 0.00 | 77 | 1009.7 |
| 20260505101003 | 56 | 164 | 1.0 | 4.0 | 0.00 | 0.00 | 0.00 | 77 | 1009.5 |
| 20260505100503 | 56 | 160 | 1.0 | 4.0 | 0.00 | 0.00 | 0.00 | 77 | 1009.4 |
| 20260505100004 | 56 | 158 | 1.0 | 4.0 | 0.00 | 0.00 | 0.00 | 77 | 1009.4 |
| 20260505095503 | 56 | 159 | 1.0 | 6.0 | 0.00 | 0.00 | 0.00 | 77 | 1009.4 |
| 20260505095004 | 56 | 161 | 0.0 | 6.0 | 0.00 | 0.00 | 0.00 | 78 | 1009.3 |
| 20260505094524 | 56 | 167 | 0.0 | 4.0 | 0.00 | 0.00 | 0.00 | 78 | 1009.3 |
| 20260505094003 | 56 | 167 | 0.0 | 4.0 | 0.00 | 0.00 | 0.00 | 79 | 1009.2 |
| 20260505093504 | 56 | 170 | 1.0 | 6.0 | 0.00 | 0.00 | 0.00 | 79 | 1009.3 |
| 20260505093003 | 56 | 171 | 1.0 | 7.0 | 0.00 | 0.00 | 0.00 | 79 | 1009.2 |
| 20260505092503 | 56 | 166 | 1.0 | 9.0 | 0.00 | 0.00 | 0.00 | 79 | 1008.9 |
| 20260505092004 | 56 | 164 | 1.0 | 9.0 | 0.00 | 0.00 | 0.00 | 79 | 1008.9 |
| 20260505091503 | 56 | 169 | 1.0 | 4.0 | 0.00 | 0.00 | 0.00 | 79 | 1008.9 |